Location: Newark
(11.2914°S, 14.4718°E)
Time: 22:29:46
(UTC+00:00)

Explorer 11/Cluster Stage 4 - Visible Passes

Search period start: 18 September 2019 00:00
Search period end: 28 September 2019 00:00
Orbit: 467 x 1260 km, 28.8° (Epoch: 17 September)

Date Brightness Start Highest point End Pass type
(mag) Time Alt. Az. Time Alt. Az. Time Alt. Az.
18 Sep 8.5 17:53:14 10° W 18:00:23 37° NW 18:06:33 10° NNE visible
19 Sep 8.8 17:42:38 10° W 17:49:34 32° NW 17:55:42 10° NNE visible
20 Sep 9.1 17:32:08 10° W 17:38:45 28° NW 17:44:44 10° NNE visible
21 Sep 9.3 17:21:44 10° W 17:27:56 24° NW 17:33:41 10° NNE visible
22 Sep 8.0 04:27:15 10° NNW 04:30:06 20° NE 04:33:14 10° E visible
22 Sep 9.4 17:11:27 10° WNW 17:17:09 21° NNW 17:22:32 10° NNE visible
23 Sep 7.6 04:16:27 10° NNW 04:19:33 26° NNE 04:22:58 10° E visible
24 Sep 7.0 04:05:44 10° NW 04:09:02 33° NNE 04:12:37 10° E visible
25 Sep 6.4 03:55:48 15° NW 03:58:32 45° NNE 04:02:12 10° ESE visible
26 Sep 5.8 03:46:18 27° NW 03:48:03 62° NNE 03:51:46 10° ESE visible
27 Sep 5.4 03:36:43 50° NW 03:37:35 86° NNE 03:41:17 10° ESE visible
